STARLINK-4723 (53797 NORAD) Tracking and Keplerian Element Data

This shows tracking and keplerian element data for the satellite.

Feedback or suggestion? Click here.




ElementValue
Catalog53797
NameSTARLINK-4723
Epoch Orbit1107
Epoch Day325.33334491
Epoch Year2022
RAAN280.2682
Inclination53.2168
Eccentricity0.0001628
Argument of Perigee41.8838
Mean Anonmoly10.3475
Mean Motion15.12869306
Decay Rate-0.01150761
L11 53797U 22111AA 22325.33334491 -.01150761 00000+0 -70235-1 0 9992
L22 53797 53.2168 280.2682 0001628 41.8838 10.3475 15.12869306 11075



Live tracking and technical data element details for STARLINK-4723 (NORAD 53797). STARLINK-4723 can be tracked NOW for your location showing map with azimuth and elevation plus other details from your city location.







IsCatalogInMostPopularTable: catalog: 53797, numindb: -1

Insert: records affected: 1


GetName: 53797 STARLINK-4723

Hit Count: inserted at: Thu, 08 Dec 2022 10:14:20 GMT